QPF
0.00 0.00 0.00 0.00 0.00 0.00 0.00 0.00 0.00 0.00 0.00 0.00 0.00 0.00 0.00 0.00 0.00 0.00 0.00 0.00 0.00 0.00 0.00 0.00 0.00 0.00 0.00 0.00 0.00 0.00 0.00 0.00 0.00 0.00 0.00 0.00 0.00 0.00 0.00 0.00 0.00 0.00 0.00
0.00 0.00 0.00 0.00 0.00 0.00 0.00 0.00 0.00 0.00 0.00 0.00 0.00 0.00 0.00 0.00 0.00 0.00 0.00 0.00 0.00 0.00 0.00 0.00 0.00 0.00 0.00 0.00 0.00 0.00 0.00 0.00 0.00 0.00 0.00 0.00 0.00 0.00 0.00 0.00 0.00 0.00 0.00
0.00 0.00 0.00 0.00 0.00 0.00 0.00 0.00 0.00 0.00 0.00 0.00 0.00 0.00 0.00 0.00 0.00 0.00 0.00 0.00 0.00 0.00 0.00 0.00 0.00 0.00 0.00 0.00 0.00 0.00 0.00 0.00 0.00 0.00 0.00 0.00 0.00 0.00 0.00 0.00 0.00 0.00 0.00
0.00 0.00 0.00 0.00 0.00 0.00 0.00 0.00 0.00 0.00 0.00 0.00 0.00 0.00 0.00 0.00 0.00 0.00 0.00 0.00 0.00 0.00 0.00 0.00 0.00 0.00 0.00 0.00 0.00 0.00 0.00 0.00 0.00 0.00 0.00 0.00 0.00 0.00 0.00 0.00 0.00 0.00 0.00
0.00 0.00 0.00 0.00 0.00 0.00 0.00 0.00 0.00 0.00 0.00 0.00 0.00 0.00 0.00 0.00 0.00 0.00 0.00 0.00 0.00 0.00 0.00 0.00 0.00 0.00 0.00 0.00 0.00 0.00 0.00 0.00 0.00 0.00 0.00 0.00 0.00 0.00 0.00 0.00 0.00 0.00 0.00
0.00 0.00 0.00 0.00 0.00 0.00 0.00 0.00 0.00 0.00 0.00 0.00 0.00 0.00 0.00 0.00 0.00 0.00 0.00 0.00 0.00 0.00 0.00 0.00 0.00 0.00 0.00 0.00 0.00 0.01 0.01 0.01 0.00 0.00 0.00 0.00 0.00 0.00 0.00 0.01 0.01 0.01 0.01
0.00 0.00 0.00 0.00 0.00 0.00 0.00 0.00 0.00 0.00 0.00 0.00 0.01 0.01 0.00 0.00 0.00 0.00 0.00 0.00 0.00 0.00 0.00 0.00 0.00 0.00 0.00 0.00 0.01 0.01 0.00 0.00 0.00 0.00 0.00 0.00 0.00 0.00 0.00 0.01 0.01 0.02 0.02
0.00 0.00 0.00 0.00 0.00 0.00 0.00 0.00 0.00 0.00 0.00 0.01 0.00 0.00 0.00 0.00 0.00 0.00 0.00 0.00 0.00 0.00 0.00 0.00 0.00 0.00 0.00 0.00 0.00 0.00 0.00 0.00 0.00 0.00 0.00 0.00 0.00 0.01 0.01 0.02 0.02 0.03 0.02
0.00 0.00 0.00 0.00 0.00 0.00 0.00 0.00 0.00 0.00 0.00 0.00 0.00 0.00 0.00 0.00 0.00 0.00 0.00 0.00 0.00 0.00 0.00 0.00 0.00 0.00 0.00 0.01 0.01 0.00 0.00 0.00 0.00 0.00 0.01 0.01 0.01 0.02 0.02 0.02 0.03 0.03 0.03
0.00 0.00 0.00 0.00 0.00 0.00 0.00 0.00 0.00 0.00 0.00 0.00 0.00 0.00 0.00 0.00 0.00 0.00 0.00 0.00 0.00 0.00 0.00 0.00 0.00 0.00 0.00 0.01 0.01 0.00 0.00 0.00 0.00 0.00 0.00 0.00 0.01 0.00 0.01 0.01 0.01 0.03 0.03
0.00 0.00 0.00 0.00 0.00 0.00 0.00 0.00 0.00 0.00 0.00 0.00 0.00 0.00 0.00 0.00 0.00 0.00 0.00 0.00 0.00 0.00 0.00 0.00 0.00 0.00 0.01 0.01 0.01 0.01 0.01 0.01 0.01 0.01 0.01 0.01 0.00 0.00 0.00 0.00 0.01 0.02 0.04
0.00 0.00 0.00 0.00 0.00 0.00 0.00 0.00 0.00 0.00 0.00 0.00 0.00 0.00 0.00 0.00 0.00 0.00 0.00 0.00 0.00 0.01 0.00 0.00 0.00 0.00 0.01 0.01 0.01 0.01 0.01 0.02 0.01 0.01 0.01 0.01 0.01 0.01 0.01 0.01 0.01 0.01 0.02
0.00 0.00 0.00 0.00 0.00 0.00 0.00 0.00 0.00 0.00 0.00 0.00 0.00 0.00 0.00 0.00 0.00 0.00 0.00 0.00 0.00 0.00 0.00 0.00 0.00 0.01 0.01 0.01 0.01 0.01 0.01 0.01 0.01 0.01 0.01 0.01 0.01 0.01 0.01 0.01 0.01 0.01 0.01
0.00 0.00 0.00 0.00 0.00 0.00 0.00 0.00 0.00 0.00 0.00 0.00 0.00 0.00 0.00 0.00 0.00 0.00 0.00 0.00 0.00 0.00 0.00 0.00 0.00 0.00 0.00 0.00 0.00 0.00 0.00 0.01 0.01 0.01 0.01 0.01 0.00 0.00 0.01 0.01 0.01 0.01 0.01
0.00 0.00 0.00 0.00 0.00 0.00 0.00 0.00 0.00 0.00 0.00 0.00 0.00 0.00 0.00 0.00 0.00 0.00 0.00 0.00 0.00 0.00 0.00 0.00 0.00 0.00 0.00 0.00 0.00 0.00 0.00 0.01 0.01 0.01 0.01 0.01 0.01 0.01 0.01 0.01 0.02 0.02 0.02
0.00 0.00 0.00 0.00 0.00 0.00 0.00 0.00 0.00 0.00 0.00 0.00 0.00 0.00 0.00 0.00 0.00 0.00 0.00 0.00 0.00 0.00 0.00 0.00 0.00 0.00 0.00 0.00 0.00 0.00 0.00 0.01 0.01 0.01 0.00 0.01 0.01 0.01 0.01 0.01 0.02 0.02 0.02
0.00 0.00 0.00 0.00 0.00 0.00 0.00 0.00 0.00 0.00 0.00 0.00 0.00 0.00 0.00 0.00 0.00 0.00 0.00 0.00 0.00 0.00 0.00 0.00 0.00 0.00 0.00 0.00 0.00 0.00 0.00 0.00 0.00 0.00 0.01 0.01 0.01 0.01 0.01 0.01 0.01 0.02 0.01
0.00 0.00 0.00 0.00 0.00 0.00 0.00 0.00 0.00 0.00 0.00 0.00 0.00 0.00 0.00 0.00 0.00 0.00 0.00 0.00 0.00 0.00 0.00 0.00 0.00 0.00 0.00 0.00 0.00 0.00 0.00 0.00 0.01 0.01 0.01 0.01 0.01 0.02 0.01 0.01 0.01 0.01 0.01
0.00 0.00 0.00 0.00 0.00 0.00 0.00 0.00 0.00 0.00 0.00 0.00 0.00 0.00 0.00 0.00 0.00 0.00 0.00 0.00 0.00 0.00 0.00 0.00 0.00 0.00 0.00 0.00 0.00 0.00 0.00 0.01 0.01 0.01 0.01 0.01 0.01 0.01 0.01 0.01 0.01 0.02 0.02
0.00 0.00 0.00 0.00 0.00 0.00 0.00 0.00 0.00 0.00 0.00 0.00 0.00 0.00 0.00 0.00 0.00 0.00 0.00 0.00 0.00 0.00 0.00 0.00 0.00 0.00 0.00 0.00 0.00 0.00 0.00 0.00 0.00 0.01 0.00 0.00 0.00 0.01 0.01 0.01 0.01 0.01 0.01
0.00 0.00 0.00 0.00 0.00 0.00 0.00 0.00 0.00 0.00 0.00 0.00 0.00 0.00 0.00 0.00 0.00 0.00 0.00 0.00 0.00 0.00 0.00 0.00 0.00 0.00 0.00 0.00 0.00 0.00 0.01 0.01 0.01 0.01 0.00 0.00 0.01 0.01 0.01 0.01 0.01 0.01 0.01
0.00 0.00 0.00 0.00 0.00 0.00 0.00 0.00 0.00 0.00 0.00 0.00 0.00 0.00 0.00 0.00 0.00 0.00 0.00 0.00 0.00 0.00 0.00 0.00 0.00 0.00 0.00 0.01 0.01 0.01 0.01 0.01 0.00 0.01 0.01 0.01 0.01 0.01 0.01 0.01 0.01 0.01 0.01
0.00 0.00 0.00 0.00 0.00 0.00 0.00 0.00 0.00 0.00 0.00 0.00 0.00 0.00 0.00 0.00 0.00 0.00 0.00 0.00 0.00 0.00 0.00 0.00 0.00 0.00 0.00 0.00 0.01 0.01 0.01 0.01 0.01 0.01 0.01 0.01 0.01 0.01 0.01 0.01 0.01 0.01 0.01
0.00 0.00 0.00 0.00 0.00 0.00 0.00 0.00 0.00 0.00 0.00 0.00 0.00 0.00 0.00 0.00 0.00 0.00 0.00 0.00 0.00 0.00 0.00 0.00 0.00 0.00 0.00 0.00 0.00 0.01 0.01 0.01 0.01 0.01 0.01 0.01 0.01 0.01 0.01 0.01 0.01 0.00 0.00
0.00 0.00 0.00 0.00 0.00 0.00 0.00 0.00 0.00 0.00 0.00 0.00 0.00 0.00 0.00 0.00 0.00 0.00 0.00 0.00 0.00 0.00 0.00 0.00 0.00 0.00 0.00 0.00 0.00 0.00 0.01 0.01 0.02 0.02 0.02 0.01 0.01 0.01 0.01 0.01 0.01 0.00 0.00
0.00 0.00 0.00 0.00 0.00 0.00 0.00 0.00 0.00 0.00 0.00 0.00 0.00 0.00 0.00 0.00 0.00 0.00 0.00 0.00 0.00 0.00 0.00 0.00 0.00 0.00 0.00 0.00 0.00 0.00 0.01 0.01 0.02 0.03 0.04 0.03 0.02 0.01 0.01 0.01 0.01 0.01 0.00
MSLP
1010.67 1011.11 1011.60 1012.12 1012.65 1013.17 1013.70 1014.22 1014.77 1015.34 1015.94 1016.56 1017.19 1017.81 1018.39 1018.92 1019.39 1019.80 1020.16 1020.47 1020.76 1021.03 1021.29 1021.54 1021.76 1021.94 1022.07 1022.13 1022.13 1022.05 1021.91 1021.70 1021.44 1021.13 1020.78 1020.41 1020.02 1019.63 1019.24 1018.86 1018.50 1018.17 1017.87
1010.44 1010.86 1011.32 1011.81 1012.31 1012.81 1013.31 1013.83 1014.37 1014.94 1015.54 1016.16 1016.79 1017.40 1017.99 1018.53 1019.01 1019.44 1019.81 1020.14 1020.43 1020.68 1020.91 1021.12 1021.28 1021.41 1021.49 1021.51 1021.48 1021.40 1021.26 1021.07 1020.84 1020.56 1020.25 1019.90 1019.53 1019.13 1018.73 1018.34 1017.97 1017.61 1017.29
1010.23 1010.66 1011.12 1011.58 1012.05 1012.53 1013.01 1013.50 1014.02 1014.57 1015.15 1015.75 1016.36 1016.97 1017.54 1018.09 1018.58 1019.01 1019.40 1019.73 1020.02 1020.26 1020.46 1020.62 1020.74 1020.81 1020.84 1020.82 1020.75 1020.65 1020.50 1020.33 1020.12 1019.87 1019.59 1019.27 1018.92 1018.54 1018.14 1017.75 1017.36 1017.00 1016.67
1010.02 1010.48 1010.95 1011.41 1011.86 1012.31 1012.76 1013.22 1013.70 1014.22 1014.77 1015.35 1015.93 1016.52 1017.08 1017.62 1018.11 1018.55 1018.94 1019.28 1019.56 1019.79 1019.97 1020.10 1020.17 1020.19 1020.16 1020.09 1019.98 1019.85 1019.69 1019.52 1019.32 1019.09 1018.83 1018.54 1018.21 1017.85 1017.48 1017.09 1016.70 1016.34 1016.01
1009.79 1010.30 1010.80 1011.26 1011.70 1012.12 1012.54 1012.97 1013.43 1013.91 1014.43 1014.97 1015.53 1016.09 1016.64 1017.17 1017.65 1018.09 1018.48 1018.81 1019.09 1019.31 1019.46 1019.55 1019.58 1019.55 1019.48 1019.36 1019.21 1019.04 1018.86 1018.68 1018.48 1018.26 1018.02 1017.75 1017.44 1017.10 1016.74 1016.37 1016.00 1015.64 1015.32
1009.55 1010.11 1010.64 1011.11 1011.54 1011.95 1012.35 1012.76 1013.19 1013.65 1014.14 1014.66 1015.20 1015.73 1016.26 1016.77 1017.23 1017.66 1018.04 1018.37 1018.63 1018.83 1018.96 1019.01 1019.01 1018.93 1018.81 1018.65 1018.46 1018.25 1018.05 1017.84 1017.63 1017.41 1017.18 1016.92 1016.63 1016.30 1015.96 1015.60 1015.25 1014.91 1014.60
1009.32 1009.93 1010.47 1010.96 1011.39 1011.80 1012.19 1012.59 1013.01 1013.46 1013.93 1014.44 1014.95 1015.47 1015.97 1016.44 1016.89 1017.29 1017.64 1017.94 1018.18 1018.35 1018.45 1018.48 1018.44 1018.33 1018.17 1017.96 1017.74 1017.50 1017.26 1017.03 1016.80 1016.57 1016.33 1016.08 1015.79 1015.48 1015.16 1014.82 1014.48 1014.17 1013.87
1009.14 1009.77 1010.33 1010.83 1011.27 1011.68 1012.08 1012.48 1012.90 1013.35 1013.83 1014.32 1014.82 1015.30 1015.77 1016.21 1016.61 1016.98 1017.29 1017.55 1017.74 1017.88 1017.95 1017.94 1017.87 1017.73 1017.54 1017.31 1017.05 1016.79 1016.53 1016.27 1016.02 1015.77 1015.52 1015.26 1014.98 1014.68 1014.36 1014.04 1013.73 1013.43 1013.16
1009.05 1009.68 1010.24 1010.74 1011.20 1011.62 1012.04 1012.46 1012.90 1013.36 1013.83 1014.31 1014.79 1015.25 1015.67 1016.06 1016.41 1016.71 1016.96 1017.17 1017.32 1017.41 1017.43 1017.40 1017.30 1017.14 1016.93 1016.68 1016.41 1016.13 1015.85 1015.58 1015.31 1015.04 1014.77 1014.50 1014.21 1013.91 1013.61 1013.30 1013.01 1012.74 1012.50
1009.07 1009.68 1010.24 1010.74 1011.21 1011.65 1012.08 1012.53 1012.99 1013.46 1013.93 1014.40 1014.85 1015.26 1015.64 1015.96 1016.24 1016.47 1016.65 1016.79 1016.89 1016.93 1016.92 1016.85 1016.74 1016.57 1016.35 1016.10 1015.83 1015.54 1015.25 1014.96 1014.68 1014.40 1014.11 1013.82 1013.53 1013.23 1012.93 1012.65 1012.38 1012.14 1011.93
1009.20 1009.79 1010.34 1010.84 1011.31 1011.77 1012.23 1012.70 1013.17 1013.65 1014.12 1014.56 1014.97 1015.33 1015.64 1015.89 1016.09 1016.24 1016.36 1016.43 1016.47 1016.46 1016.42 1016.34 1016.21 1016.05 1015.84 1015.60 1015.33 1015.05 1014.76 1014.46 1014.16 1013.87 1013.57 1013.26 1012.96 1012.66 1012.37 1012.10 1011.86 1011.65 1011.48
1009.43 1009.99 1010.52 1011.02 1011.50 1011.98 1012.46 1012.94 1013.42 1013.90 1014.34 1014.75 1015.11 1015.41 1015.64 1015.82 1015.95 1016.03 1016.07 1016.09 1016.08 1016.05 1015.99 1015.90 1015.77 1015.61 1015.42 1015.19 1014.94 1014.67 1014.38 1014.08 1013.77 1013.46 1013.15 1012.83 1012.52 1012.21 1011.93 1011.68 1011.46 1011.29 1011.15
1009.71 1010.25 1010.77 1011.27 1011.76 1012.25 1012.75 1013.24 1013.72 1014.17 1014.58 1014.95 1015.24 1015.47 1015.64 1015.74 1015.80 1015.82 1015.82 1015.79 1015.76 1015.71 1015.65 1015.56 1015.45 1015.31 1015.13 1014.93 1014.69 1014.43 1014.14 1013.84 1013.52 1013.19 1012.86 1012.53 1012.21 1011.90 1011.63 1011.39 1011.20 1011.05 1010.95
1010.00 1010.53 1011.05 1011.56 1012.06 1012.57 1013.07 1013.55 1014.01 1014.44 1014.81 1015.11 1015.35 1015.51 1015.61 1015.66 1015.67 1015.65 1015.61 1015.57 1015.53 1015.49 1015.43 1015.37 1015.27 1015.15 1015.00 1014.81 1014.58 1014.32 1014.03 1013.72 1013.38 1013.04 1012.69 1012.35 1012.02 1011.71 1011.44 1011.22 1011.05 1010.92 1010.84
1010.28 1010.81 1011.33 1011.85 1012.37 1012.89 1013.39 1013.86 1014.29 1014.68 1015.00 1015.24 1015.41 1015.52 1015.57 1015.57 1015.55 1015.51 1015.47 1015.44 1015.41 1015.38 1015.35 1015.30 1015.23 1015.13 1014.99 1014.80 1014.58 1014.31 1014.01 1013.69 1013.34 1012.98 1012.61 1012.26 1011.92 1011.61 1011.35 1011.13 1010.97 1010.87 1010.80
1010.53 1011.06 1011.60 1012.14 1012.67 1013.19 1013.69 1014.14 1014.54 1014.88 1015.14 1015.33 1015.45 1015.50 1015.51 1015.49 1015.46 1015.42 1015.39 1015.38 1015.38 1015.37 1015.37 1015.34 1015.29 1015.19 1015.06 1014.87 1014.64 1014.36 1014.05 1013.70 1013.34 1012.96 1012.59 1012.22 1011.88 1011.57 1011.31 1011.11 1010.95 1010.85 1010.78
1010.76 1011.31 1011.87 1012.42 1012.96 1013.48 1013.96 1014.38 1014.75 1015.03 1015.24 1015.38 1015.45 1015.46 1015.45 1015.42 1015.38 1015.36 1015.35 1015.37 1015.39 1015.41 1015.43 1015.41 1015.37 1015.27 1015.13 1014.93 1014.68 1014.39 1014.06 1013.70 1013.33 1012.94 1012.57 1012.20 1011.87 1011.57 1011.32 1011.12 1010.96 1010.85 1010.77
1011.00 1011.57 1012.14 1012.70 1013.24 1013.75 1014.20 1014.59 1014.91 1015.15 1015.31 1015.39 1015.42 1015.41 1015.37 1015.34 1015.31 1015.30 1015.32 1015.35 1015.39 1015.43 1015.45 1015.44 1015.38 1015.28 1015.12 1014.90 1014.64 1014.33 1013.99 1013.63 1013.26 1012.89 1012.52 1012.18 1011.86 1011.57 1011.33 1011.14 1010.99 1010.87 1010.77
1011.27 1011.85 1012.42 1012.98 1013.51 1013.99 1014.41 1014.77 1015.03 1015.22 1015.33 1015.37 1015.37 1015.33 1015.28 1015.24 1015.22 1015.21 1015.24 1015.28 1015.33 1015.36 1015.37 1015.35 1015.28 1015.15 1014.97 1014.74 1014.47 1014.16 1013.82 1013.47 1013.12 1012.77 1012.44 1012.12 1011.83 1011.58 1011.36 1011.18 1011.02 1010.89 1010.77
1011.59 1012.16 1012.72 1013.26 1013.76 1014.21 1014.59 1014.89 1015.11 1015.24 1015.31 1015.31 1015.27 1015.21 1015.15 1015.10 1015.07 1015.07 1015.09 1015.12 1015.15 1015.17 1015.16 1015.11 1015.01 1014.86 1014.67 1014.43 1014.15 1013.85 1013.53 1013.21 1012.90 1012.59 1012.30 1012.04 1011.79 1011.57 1011.38 1011.22 1011.07 1010.94 1010.80
1011.95 1012.49 1013.02 1013.52 1013.98 1014.38 1014.70 1014.95 1015.11 1015.20 1015.22 1015.19 1015.12 1015.04 1014.96 1014.90 1014.86 1014.84 1014.84 1014.85 1014.85 1014.84 1014.80 1014.72 1014.59 1014.42 1014.22 1013.97 1013.71 1013.43 1013.15 1012.87 1012.61 1012.36 1012.13 1011.92 1011.73 1011.56 1011.40 1011.26 1011.13 1010.99 1010.85
1012.31 1012.81 1013.29 1013.74 1014.14 1014.47 1014.74 1014.93 1015.04 1015.08 1015.06 1015.00 1014.90 1014.80 1014.71 1014.63 1014.57 1014.53 1014.50 1014.48 1014.45 1014.39 1014.32 1014.20 1014.05 1013.87 1013.66 1013.42 1013.18 1012.94 1012.70 1012.48 1012.27 1012.09 1011.92 1011.77 1011.63 1011.51 1011.40 1011.29 1011.18 1011.05 1010.91
1012.63 1013.08 1013.50 1013.88 1014.20 1014.47 1014.67 1014.79 1014.85 1014.85 1014.80 1014.71 1014.60 1014.49 1014.38 1014.28 1014.20 1014.14 1014.08 1014.02 1013.95 1013.86 1013.75 1013.61 1013.44 1013.25 1013.05 1012.83 1012.62 1012.41 1012.22 1012.05 1011.91 1011.78 1011.67 1011.58 1011.49 1011.42 1011.35 1011.27 1011.19 1011.09 1010.96
1012.87 1013.25 1013.60 1013.90 1014.15 1014.34 1014.47 1014.54 1014.55 1014.51 1014.43 1014.33 1014.21 1014.09 1013.97 1013.87 1013.77 1013.69 1013.60 1013.51 1013.41 1013.30 1013.16 1013.00 1012.82 1012.63 1012.44 1012.24 1012.06 1011.89 1011.74 1011.62 1011.52 1011.44 1011.38 1011.33 1011.29 1011.25 1011.22 1011.18 1011.13 1011.07 1010.97
1012.99 1013.30 1013.57 1013.80 1013.97 1014.09 1014.15 1014.17 1014.13 1014.07 1013.97 1013.86 1013.74 1013.62 1013.50 1013.39 1013.29 1013.19 1013.09 1012.97 1012.85 1012.71 1012.56 1012.39 1012.21 1012.03 1011.84 1011.67 1011.51 1011.37 1011.26 1011.17 1011.10 1011.05 1011.02 1011.01 1011.00 1011.00 1011.00 1011.00 1010.99 1010.96 1010.92
1012.98 1013.22 1013.42 1013.57 1013.67 1013.72 1013.72 1013.69 1013.62 1013.53 1013.43 1013.31 1013.19 1013.08 1012.97 1012.86 1012.75 1012.64 1012.53 1012.41 1012.27 1012.12 1011.96 1011.79 1011.61 1011.43 1011.26 1011.11 1010.97 1010.85 1010.75 1010.68 1010.63 1010.60 1010.59 1010.60 1010.61 1010.64 1010.67 1010.71 1010.74 1010.77 1010.77
Thickness
5650 5645 5641 5636 5630 5625 5619 5613 5606 5600 5593 5587 5581 5575 5568 5562 5556 5550 5544 5539 5533 5527 5521 5516 5510 5505 5499 5493 5487 5480 5474 5467 5465 5468 5463 5460 5455 5450 5447 5442 5439 5435 5432
5644 5639 5635 5630 5624 5619 5614 5608 5601 5595 5588 5582 5576 5569 5563 5557 5551 5545 5539 5533 5527 5521 5515 5509 5504 5498 5492 5486 5479 5473 5467 5461 5456 5456 5455 5448 5444 5439 5435 5431 5427 5423 5418
5637 5633 5628 5623 5618 5613 5608 5602 5596 5589 5583 5576 5570 5564 5558 5552 5546 5540 5534 5528 5522 5516 5509 5503 5497 5490 5484 5478 5472 5466 5460 5454 5447 5443 5443 5438 5432 5427 5422 5418 5414 5409 5404
5631 5626 5622 5617 5612 5607 5602 5595 5589 5583 5577 5570 5564 5558 5552 5546 5540 5533 5527 5521 5515 5509 5502 5496 5490 5484 5477 5471 5464 5457 5451 5444 5437 5431 5429 5425 5419 5414 5407 5403 5401 5396 5391
5624 5619 5615 5610 5605 5599 5594 5588 5582 5576 5571 5564 5558 5551 5545 5539 5533 5526 5520 5514 5507 5501 5494 5488 5482 5476 5470 5463 5456 5449 5441 5433 5426 5420 5417 5412 5407 5399 5393 5389 5386 5383 5379
5617 5613 5608 5602 5597 5592 5586 5580 5574 5568 5562 5556 5550 5544 5538 5533 5527 5521 5514 5506 5499 5492 5486 5480 5473 5467 5461 5455 5448 5441 5433 5423 5416 5409 5405 5399 5395 5388 5382 5376 5371 5368 5366
5610 5605 5600 5595 5589 5584 5578 5572 5566 5560 5554 5548 5542 5536 5530 5525 5520 5513 5506 5498 5491 5484 5477 5470 5464 5458 5451 5444 5437 5431 5423 5415 5408 5400 5394 5389 5382 5376 5369 5364 5357 5352 5349
5602 5597 5592 5587 5581 5575 5569 5564 5557 5551 5545 5539 5533 5527 5521 5516 5510 5505 5498 5490 5482 5475 5468 5461 5454 5447 5439 5432 5425 5418 5411 5403 5396 5390 5384 5378 5371 5364 5356 5351 5345 5340 5336
5594 5589 5584 5579 5573 5566 5560 5555 5548 5542 5536 5530 5524 5518 5512 5506 5501 5495 5488 5479 5472 5465 5458 5451 5443 5435 5429 5422 5414 5407 5401 5394 5387 5380 5373 5366 5360 5352 5344 5337 5330 5323 5322
5587 5581 5576 5570 5565 5558 5552 5546 5539 5533 5527 5520 5514 5508 5502 5496 5491 5485 5478 5470 5462 5455 5448 5440 5432 5425 5419 5411 5403 5395 5389 5384 5376 5369 5361 5354 5346 5338 5330 5322 5315 5309 5305
5578 5572 5566 5560 5555 5549 5542 5535 5529 5522 5515 5509 5503 5497 5492 5486 5481 5475 5468 5459 5452 5444 5437 5429 5421 5414 5408 5401 5393 5384 5378 5372 5365 5357 5349 5341 5333 5325 5318 5310 5303 5296 5291
5567 5561 5555 5549 5544 5538 5531 5524 5518 5511 5504 5497 5491 5485 5480 5475 5470 5464 5458 5451 5443 5434 5426 5418 5411 5404 5397 5389 5381 5374 5366 5359 5350 5342 5334 5327 5320 5313 5306 5300 5293 5287 5281
5555 5549 5543 5538 5532 5527 5520 5513 5506 5499 5493 5486 5480 5474 5468 5463 5457 5453 5447 5440 5432 5423 5415 5408 5401 5393 5385 5376 5368 5360 5352 5343 5334 5327 5320 5314 5307 5301 5295 5289 5283 5278 5273
5544 5537 5532 5526 5520 5514 5509 5503 5496 5489 5482 5475 5469 5463 5457 5450 5444 5439 5432 5426 5419 5411 5403 5395 5388 5380 5371 5363 5355 5345 5336 5328 5320 5314 5308 5302 5295 5288 5282 5276 5271 5266 5262
5531 5525 5520 5514 5508 5502 5496 5491 5486 5480 5474 5467 5460 5453 5446 5439 5435 5430 5422 5415 5406 5398 5391 5382 5373 5364 5355 5346 5338 5330 5322 5315 5308 5302 5295 5289 5283 5276 5271 5266 5260 5256 5251
5520 5513 5508 5502 5496 5490 5483 5477 5473 5468 5464 5458 5452 5445 5438 5433 5426 5419 5412 5404 5396 5388 5378 5368 5358 5350 5341 5333 5325 5318 5311 5304 5297 5291 5284 5277 5272 5267 5262 5257 5253 5248 5244
5509 5502 5495 5489 5483 5477 5471 5464 5458 5454 5450 5445 5439 5433 5427 5420 5413 5406 5399 5391 5383 5374 5363 5354 5345 5336 5328 5321 5313 5306 5300 5294 5287 5281 5275 5269 5264 5259 5254 5250 5245 5241 5238
5496 5491 5484 5477 5471 5464 5458 5452 5446 5440 5434 5428 5424 5419 5413 5407 5399 5392 5385 5376 5367 5358 5348 5339 5331 5324 5316 5309 5302 5296 5290 5283 5277 5271 5266 5260 5255 5251 5246 5243 5239 5235 5233
5483 5477 5471 5464 5458 5452 5446 5439 5433 5427 5421 5415 5409 5404 5399 5393 5385 5378 5370 5360 5351 5343 5335 5326 5319 5311 5305 5298 5292 5286 5280 5274 5269 5263 5258 5253 5248 5243 5240 5237 5234 5232 5229
5470 5466 5460 5453 5446 5439 5433 5426 5420 5414 5408 5401 5396 5390 5384 5377 5369 5362 5354 5346 5338 5330 5323 5315 5308 5301 5294 5288 5282 5276 5271 5266 5261 5256 5251 5247 5242 5238 5235 5232 5230 5227 5224
5457 5452 5448 5440 5433 5427 5421 5414 5408 5402 5395 5389 5383 5378 5373 5365 5357 5349 5341 5334 5326 5319 5312 5304 5297 5291 5285 5279 5273 5268 5264 5259 5255 5250 5245 5241 5237 5234 5231 5229 5227 5224 5221
5444 5438 5433 5427 5421 5415 5409 5403 5396 5390 5383 5377 5371 5365 5360 5352 5344 5337 5330 5323 5315 5308 5302 5295 5289 5283 5277 5271 5266 5262 5257 5253 5249 5245 5241 5237 5233 5231 5228 5226 5223 5220 5218
5431 5426 5420 5415 5409 5405 5398 5390 5384 5377 5371 5364 5358 5352 5346 5339 5332 5325 5318 5311 5304 5298 5292 5286 5280 5275 5270 5265 5260 5256 5251 5247 5244 5241 5237 5234 5230 5227 5225 5222 5220 5217 5216
5420 5414 5408 5402 5397 5391 5384 5378 5371 5365 5359 5352 5346 5340 5333 5327 5320 5314 5307 5301 5295 5289 5284 5278 5273 5268 5263 5258 5254 5250 5246 5243 5240 5237 5234 5231 5227 5225 5222 5219 5217 5215 5214
5407 5402 5396 5390 5384 5378 5372 5366 5359 5353 5346 5340 5334 5328 5322 5315 5309 5303 5297 5292 5286 5281 5276 5271 5266 5261 5256 5252 5248 5245 5242 5239 5237 5234 5231 5228 5224 5222 5219 5217 5215 5213 5212
5395 5389 5384 5378 5371 5365 5359 5353 5347 5341 5334 5329 5323 5317 5311 5305 5299 5294 5289 5283 5278 5274 5269 5264 5259 5255 5251 5247 5243 5240 5238 5236 5234 5232 5229 5225 5222 5220 5217 5215 5213 5212 5211